EW7899 Weather Reports


time (UTC)temp
F
wind
direction
speed
knots
gust
knots
rain 1hr
in
rain 24hr
in
rain mn
in
humidity
%
barometer
mb
20260508024548 37 334 0.0 0.0 0.00 0.00 0.00 84 1006.2
20260508023048 37 334 0.0 0.0 0.00 0.00 0.00 82 1006.3
20260508021550 37 335 0.0 0.0 0.00 0.00 0.00 82 1006.3
20260508020046 37 334 0.0 0.0 0.00 0.00 0.00 79 1006.2
20260508014543 38 359 0.0 0.0 0.00 0.00 0.00 78 1006.2
20260508013043 39 335 0.0 0.0 0.00 0.00 0.00 75 1006.1
20260508011542 40 334 0.0 0.0 0.00 0.00 0.00 74 1006.0
20260508010040 41 334 0.0 0.0 0.00 0.00 0.00 71 1006.0
20260508004542 42 334 0.0 0.0 0.00 0.00 0.00 65 1005.8
20260508003040 43 335 0.0 0.0 0.00 0.00 0.00 64 1005.6
20260508001540 44 335 0.0 0.0 0.00 0.00 0.00 66 1005.5
20260508000038 45 359 0.0 0.0 0.00 0.00 0.00 66 1005.4
20260507234538 46 316 0.0 3.5 0.00 0.00 0.00 63 1005.4
20260507233040 47 300 0.0 4.3 0.00 0.00 0.00 60 1005.3
20260507231537 48 302 1.7 8.7 0.00 0.00 0.00 50 1005.3
20260507230037 48 359 1.7 11.3 0.00 0.00 0.00 47 1005.2
20260507224537 49 318 3.5 11.3 0.00 0.00 0.00 46 1005.2
20260507223036 49 328 4.3 10.4 0.00 0.00 0.00 45 1005.2
20260507221536 49 328 2.6 12.2 0.00 0.00 0.00 44 1005.3
20260507220036 49 305 3.5 12.2 0.00 0.01 0.00 48 1005.3
20260507214543 49 280 3.5 12.2 0.00 0.01 0.00 47 1005.2
20260507213035 49 312 5.2 17.4 0.00 0.01 0.00 44 1005.2
20260507211533 49 359 5.2 13.0 0.00 0.01 0.00 46 1005.1
20260507210048 50 316 8.7 20.9 0.00 0.01 0.00 42 1005.0
20260507204532 49 332 7.8 12.2 0.00 0.01 0.00 47 1005.0
20260507203035 49 253 7.0 22.6 0.00 0.01 0.00 46 1005.1
20260507201530 49 308 9.6 15.6 0.00 0.01 0.00 45 1005.1
20260507200035 49 315 6.1 11.3 0.00 0.02 0.00 46 1005.2
20260507194547 49 359 0.0 13.0 0.00 0.02 0.00 49 1005.3
20260507193033 49 305 6.1 11.3 0.00 0.02 0.00 44 1005.4
20260507191528 50 280 6.1 11.3 0.00 0.02 0.00 43 1005.4
20260507190028 51 264 7.8 19.1 0.00 0.03 0.00 42 1005.6
20260507184530 50 359 6.1 20.0 0.00 0.03 0.00 43 1005.6
20260507183034 50 315 9.6 21.7 0.00 0.03 0.00 45 1005.4
20260507181526 50 323 6.1 19.1 0.00 0.03 0.00 45 1005.1
20260507180031 50 316 11.3 18.2 0.00 0.05 0.00 43 1005.4
20260507174535 50 359 9.6 16.5 0.00 0.05 0.00 45 1005.1
20260507173034 49 310 10.4 20.9 0.00 0.05 0.00 46 1005.4
20260507171522 49 359 12.2 20.9 0.00 0.05 0.00 45 1005.4
20260507170022 49 321 14.8 24.3 0.00 0.15 0.00 47 1005.3
20260507164521 50 324 12.2 20.0 0.00 0.15 0.00 48 1005.6
20260507163019 51 299 2.6 15.6 0.00 0.15 0.00 53 1005.5
20260507161515 49 359 4.3 21.7 0.00 0.15 0.00 53 1005.7
20260507160020 48 295 6.1 16.5 0.00 0.24 0.00 51 1005.7
20260507154527 49 312 8.7 20.9 0.00 0.24 0.00 51 1005.9
20260507153028 48 282 1.7 10.4 0.00 0.24 0.00 59 1006.0
20260507151512 48 306 7.0 18.2 0.00 0.24 0.00 52 1006.2
20260507150011 49 245 2.6 12.2 0.00 0.33 0.00 57 1006.2
20260507144507 48 77 0.9 20.0 0.00 0.33 0.00 57 1006.1
20260507143005 46 312 7.8 21.7 0.00 0.33 0.00 57 1006.1
20260507141501 46 287 3.5 18.2 0.00 0.33 0.00 66 1006.0
20260507140058 45 318 6.1 12.2 0.00 0.40 0.00 63 1006.2
20260507134559 44 214 5.2 16.5 0.00 0.40 0.00 66 1006.4
20260507133057 44 333 9.6 16.5 0.00 0.40 0.00 66 1006.4
20260507131610 43 318 1.7 13.9 0.00 0.40 0.00 70 1006.4
20260507130048 43 359 0.0 15.6 0.00 0.46 0.00 78 1006.4
20260507124545 42 316 1.7 12.2 0.00 0.46 0.00 79 1006.1
20260507123044 41 282 6.1 17.4 0.00 0.46 0.00 79 1006.1
20260507121543 40 124 4.3 13.0 0.00 0.46 0.00 85 1006.2
20260507120038 40 359 2.6 13.0 0.00 0.55 0.00 87 1006.3
20260507114539 39 359 1.7 7.8 0.00 0.55 0.00 90 1006.3
20260507113035 38 268 0.0 6.1 0.00 0.55 0.00 90 1006.2
20260507111533 38 359 0.0 8.7 0.00 0.55 0.00 90 1006.2
20260507110031 39 123 2.6 12.2 0.00 0.62 0.00 89 1006.2
20260507104529 39 130 0.9 4.3 0.00 0.62 0.00 92 1006.0
20260507103030 39 253 0.0 0.9 0.00 0.62 0.00 92 1005.7
20260507101525 39 168 0.0 7.8 0.00 0.62 0.00 92 1005.8
20260507100027 40 288 0.0 6.1 0.00 0.63 0.00 92 1005.8
20260507094520 41 197 0.0 1.7 0.00 0.63 0.00 94 1005.7
20260507093019 41 62 0.9 10.4 0.00 0.63 0.00 95 1005.7
20260507091525 41 170 0.0 1.7 0.00 0.63 0.00 95 1005.7
20260507090021 41 170 0.0 0.0 0.00 0.63 0.00 95 1005.4
20260507084518 41 258 0.0 0.9 0.00 0.63 0.00 95 1005.4
20260507083018 41 359 0.0 0.0 0.00 0.63 0.00 95 1005.3
20260507081516 41 92 0.0 0.0 0.00 0.63 0.00 95 1005.4
20260507080015 41 145 0.0 3.5 0.00 0.63 0.00 95 1005.5
20260507074514 41 122 0.0 6.1 0.00 0.63 0.00 95 1005.6
20260507073014 41 150 0.0 0.0 0.00 0.63 0.00 95 1005.7
20260507071536 41 335 0.0 3.5 0.00 0.63 0.00 95 1005.6
20260507070014 41 293 0.0 5.2 0.00 0.64 0.00 95 1005.6
20260507064515 41 181 0.0 7.0 0.00 0.64 0.00 95 1005.4
20260507063010 41 228 0.0 7.8 0.00 0.64 0.00 95 1005.6
20260507061509 41 359 0.9 7.0 0.00 0.64 0.00 95 1005.7
20260507060006 41 222 1.7 7.0 0.00 0.64 0.00 95 1005.6
20260507054505 41 10 1.7 5.2 0.00 0.64 0.00 95 1005.9
20260507053003 41 359 0.0 1.7 0.00 0.64 0.00 95 1005.9
20260507051502 41 222 0.0 0.0 0.00 0.64 0.00 95 1005.8
20260507050104 41 286 0.0 4.3 0.00 0.66 0.00 95 1005.8
20260507044559 41 256 0.0 1.7 0.00 0.66 0.00 95 1006.1
20260507043056 41 349 0.0 1.7 0.00 0.66 0.00 95 1006.0
20260507041556 41 231 0.0 4.3 0.00 0.66 0.00 95 1006.3
20260507040050 41 154 0.0 3.5 0.00 0.67 0.66 95 1006.2
20260507034550 41 195 0.0 0.0 0.00 0.67 0.66 95 1006.2
20260507033051 41 192 0.0 0.0 0.00 0.67 0.66 95 1006.3
20260507031553 42 193 0.0 2.6 0.00 0.67 0.66 95 1006.3
20260507030047 42 359 0.0 0.0 0.00 0.68 0.66 95 1006.4